Location: Stoke Bliss
(52.2667°N, 2.5167°W)
Time: 14:35:08
(UTC+00:00)

Envisat - Pass Details

Date: 10 December 2021
Orbit: 764 x 766 km, 98.2° (Epoch: 28 January)

Event Time Altitude Azimuth Distance (km) Brightness Sun altitude
Rises 05:06:20 0° 16° (NNE) 3,248 6.4 -26.5°
Reaches altitude 10° 05:08:41 10° 20° (NNE) 2,317 5.6 -26.1°
Maximum altitude 05:13:45 64° 102° (ESE) 850 3.4 -25.3°
Drops below altitude 10° 05:18:47 10° 184° (S) 2,298 5.5 -24.6°
Sets 05:21:06 0° 187° (S) 3,220 6.2 -24.2°
